Volver al catálogo

STARLINK-37916

ActivoComunicacionesSSO
NORAD 69565·PAYLOAD·🇺🇸 United States

Lanzado Jun 15, 2026 desde Vandenberg Space Force Base

Loading…

Próximos Pases (próximas 24 horas)

TLE

ActualizadoSource: CelesTrak SupGP

Época: Sep 15, 2026, 04:03 UTC

1 69565C 26135V   26258.16923611 -.00062175  00000+0 -19304-2 0  2589
2 69565  97.2838 285.9850 0000979  92.3993  17.8349 15.33465071    15

Sigue STARLINK-37916 en tiempo real con AllMySat

Download on the App Store